FW4206 Weather Reports


time (UTC)temp
F
wind
direction
speed
knots
gust
knots
rain 1hr
in
rain 24hr
in
rain mn
in
humidity
%
barometer
mb
20260503203111 64 359 6.1 11.3 0.00 0.00 0.00 61 1019.7
20260503201628 64 359 9.6 14.8 0.00 0.00 0.00 62 1019.4
20260503200037 64 359 12.2 15.6 0.00 0.00 0.00 62 1019.2
20260503194550 64 359 12.2 18.2 0.00 0.00 0.00 62 1019.2
20260503191620 64 359 12.2 20.0 0.00 0.00 0.00 61 1019.1
20260503190105 64 359 8.7 20.0 0.00 0.00 0.00 59 1019.1
20260503184512 64 359 11.3 17.4 0.00 0.00 0.00 57 1019.0
20260503183015 64 359 13.9 20.0 0.00 0.00 0.00 57 1018.9
20260503181510 64 359 13.0 18.2 0.00 0.00 0.00 57 1019.0
20260503180051 65 359 12.2 20.0 0.00 0.00 0.00 56 1019.1
20260503174538 64 359 11.3 21.7 0.00 0.00 0.00 55 1019.1
20260503173048 64 359 14.8 20.9 0.00 0.00 0.00 56 1019.0
20260503171541 64 359 12.2 20.0 0.00 0.00 0.00 56 1019.2
20260503100107 67 359 2.6 7.0 0.00 0.00 0.00 52 1021.4
20260503081540 63 359 0.9 8.7 0.00 0.00 0.00 62 1021.4
20260503071606 61 359 3.5 8.7 0.00 0.00 0.00 66 1021.3
20260503054536 60 359 3.5 8.7 0.00 0.00 0.00 67 1020.8
20260503053024 59 359 3.5 8.7 0.00 0.00 0.00 68 1020.6
20260503051501 59 359 2.6 7.0 0.00 0.00 0.00 68 1020.5
20260503050059 59 359 4.3 7.8 0.00 0.00 0.00 67 1020.5
20260503044522 59 359 1.7 7.8 0.00 0.00 0.00 67 1020.3
20260503043018 60 359 1.7 5.2 0.00 0.00 0.00 66 1020.3
20260503041517 60 359 5.2 9.6 0.00 0.00 0.00 66 1020.3
20260503040012 60 359 4.3 10.4 0.00 0.00 0.00 66 1020.4
20260503034511 60 359 3.5 8.7 0.00 0.00 0.00 66 1020.4
20260503033011 60 359 4.3 8.7 0.00 0.00 0.00 66 1020.4
20260503031505 61 359 1.7 7.0 0.00 0.00 0.00 65 1020.6
20260503030004 61 359 3.5 7.0 0.00 0.00 0.00 64 1020.6
20260503024504 62 359 2.6 7.8 0.00 0.00 0.00 64 1020.6
20260503023002 62 359 3.5 7.0 0.00 0.00 0.00 63 1020.7
20260503021602 62 359 0.9 5.2 0.00 0.00 0.00 63 1020.8
20260503021502 62 359 1.7 5.2 0.00 0.00 0.00 63 1020.8
20260503014624 63 359 1.7 4.3 0.00 0.00 0.00 62 1020.9
20260503013100 63 359 1.7 4.3 0.00 0.00 0.00 62 1020.9
20260503011618 63 359 1.7 7.8 0.00 0.00 0.00 63 1021.1
20260503010058 64 359 1.7 5.2 0.00 0.00 0.00 63 1021.3
20260503004604 64 238 2.6 4.3 0.00 0.00 0.00 64 1021.7
20260503003057 64 359 2.6 5.2 0.00 0.00 0.00 64 1021.9
20260503001556 64 359 3.5 7.0 0.00 0.00 0.00 65 1021.9
20260503000050 64 359 3.5 7.0 0.00 0.00 0.00 67 1021.9
20260502234552 64 359 5.2 8.7 0.00 0.00 0.00 67 1021.8
20260502233053 64 359 4.3 9.6 0.00 0.00 0.00 68 1021.9
20260502231549 64 359 4.3 7.8 0.00 0.00 0.00 68 1022.0
20260502230047 64 359 5.2 9.6 0.00 0.00 0.00 68 1022.0
20260502224601 64 359 5.2 11.3 0.00 0.00 0.00 67 1021.9
20260502223046 64 359 4.3 12.2 0.00 0.00 0.00 67 1021.9
20260502221545 64 359 7.0 10.4 0.00 0.00 0.00 66 1022.0
20260502220043 64 359 5.2 12.2 0.00 0.00 0.00 66 1022.0
20260502214542 64 359 7.8 13.0 0.00 0.00 0.00 66 1021.8
20260502213042 64 359 7.8 12.2 0.00 0.00 0.00 66 1021.9
20260502211548 64 359 8.7 12.2 0.00 0.00 0.00 67 1021.8
20260502210040 64 359 6.1 12.2 0.00 0.00 0.00 66 1021.7
20260502204540 64 359 7.8 12.2 0.00 0.00 0.00 66 1021.6